Simultaneous Nadir Overpasses (SNOs) Predictions

Prediction of SNOs between AQUA and METOP-B Satellite Orbit:

Table of predicted SNOs for the next 14.0 days since TLE Epoch: 8/11/2018
Index Date (AQUA) Time (AQUA) Lat,Lon (AQUA) SZA (AQUA ) Date (METOP-B) Time (METOP-B) Lat,Lon (METOP-B) SZA (METOP-B ) Distance(km) Time Diff (sec)
1 08/11/2018 21:48:37 73.41,-151.94 58.35 08/11/2018 21:47:30 73.37,-154.32 58.43 75.88 67
2 08/11/2018 22:38:14 -73.99, 14.43 121.01 08/11/2018 22:37:59 -74.00, 14.47 121.00 1.62 15
3 08/11/2018 23:27:42 74.03,-178.02 59.04 08/11/2018 23:28:38 74.04,-178.09 59.05 2.61 56
4 08/14/2018 17:22:54 73.67, -86.05 59.48 08/14/2018 17:21:44 73.59, -87.41 59.48 43.30 70
5 08/14/2018 18:12:26 -73.99, 80.87 120.16 08/14/2018 18:12:18 -73.98, 80.83 120.17 1.95 8
6 08/14/2018 19:01:55 74.08,-111.69 59.95 08/14/2018 19:02:56 74.07,-111.62 59.92 2.75 61
7 08/17/2018 12:57:11 73.88, -20.08 60.59 08/17/2018 12:55:58 73.86, -20.37 60.60 9.21 73
8 08/17/2018 13:46:39 -74.00, 147.30 119.27 08/17/2018 13:46:37 -74.01, 147.30 119.26 0.71 2
9 08/17/2018 14:36:08 74.09, -45.26 60.84 08/17/2018 14:37:15 74.09, -45.17 60.82 2.96 67
10 08/20/2018 08:31:25 73.94, 46.23 61.57 08/20/2018 08:30:16 73.93, 46.20 61.57 1.44 69
11 08/20/2018 09:20:52 -74.01,-146.28 118.35 08/20/2018 09:20:56 -74.03,-146.23 118.33 2.67 4
12 08/20/2018 10:10:21 74.10, 21.16 61.76 08/20/2018 10:11:34 74.10, 21.29 61.75 4.06 73
13 08/23/2018 04:05:37 73.96, 112.64 62.52 08/23/2018 04:04:34 73.95, 112.65 62.52 1.06 63
14 08/23/2018 04:55:04 -74.03, -79.87 117.40 08/23/2018 04:55:15 -74.00, -79.89 117.42 2.75 11




NCC Satellite Simultaneous Nadir Overpasses (SNOs) Prediction Service
